Flag Weather past 2 weeks in Douai, France

Now
48 °F

Sunny.


Feels Like: 46 °F
Forecast: 36 / 46 °F
Wind: 6 mph from Northeast

Location: Lille Airport

Current Time: Nov 24, 2014 at 4:35:14 PM

Latest Report: Nov 24, 2014 at 4:00 PM


Visibility: 10 mi

Pressure: 30.30 "Hg

Humidity: 71%

Dew point: 39 °F

Location of DouaiLocation

Historic Weather in Douai — Graph

°F

Douai temperature yesterday

Maximum temperature yesterday: 57 °F (at 1:30 PM)
Minimum temperature yesterday: 48 °F (at 4:00 AM)
Average temperature yesterday: 52 °F

Past Weeks' High & Low Weather Summary

 TemperatureHumidityPressure
High59 °F (Nov 11, 2:00 PM)100% (Nov 10, 1:30 AM)30.30 "Hg (Nov 10, 1:30 AM)
Low37 °F (Nov 21, 7:30 AM)67% (Nov 12, 2:00 PM)29.47 "Hg (Nov 11, 8:30 PM)
Average48 °F92%29.82 "Hg
* Reported Nov 9 3:00 PM — Nov 24 3:30 PM, Douai, Weather by CustomWeather, © 2014

Note: Actual official high and low records may vary slightly from our data, if they occured in-between our weather recording intervals... More about our weather records

Advertising

Douai weather history for previous 24 hours

 ConditionsComfort  
Time TempWeatherWind HumidityBarometerVisibility
3:30 PM
Nov 24
50 °FSunny.8 mph71%30.30 "Hg10 mi
3:00 PM50 °FSunny.6 mph71%30.30 "Hg10 mi
2:30 PM50 °FSunny.7 mph67%30.30 "Hg10 mi
2:00 PM52 °FSunny.5 mph67%30.30 "Hg10 mi
1:30 PM50 °FPassing clouds.6 mph67%30.30 "HgN/A
1:00 PM50 °FPassing clouds.6 mph71%30.30 "HgN/A
12:30 PM50 °FSunny.8 mph71%30.30 "Hg10 mi
12:00 PM50 °FSunny.8 mph71%30.30 "Hg10 mi
11:30 AM50 °FSunny.7 mph76%30.30 "Hg10 mi
11:00 AM50 °FSunny.5 mph76%30.30 "Hg10 mi
10:30 AM48 °FSunny.6 mph82%30.30 "Hg10 mi
10:00 AM45 °FSunny.No wind93%30.27 "Hg10 mi
9:30 AM43 °FSunny.3 mph93%30.27 "Hg10 mi
9:00 AM43 °FSunny.1 mph93%30.27 "Hg10 mi
8:30 AM43 °FSunny.3 mph93%30.24 "Hg10 mi
8:00 AM45 °FClear.5 mph93%30.24 "Hg10 mi
7:30 AM45 °FClear.7 mph93%30.21 "Hg10 mi
7:00 AM45 °FClear.7 mph93%30.21 "Hg10 mi
6:30 AM45 °FPassing clouds.7 mph100%30.21 "HgN/A
6:00 AM45 °FClear.1 mph93%30.21 "Hg10 mi
5:30 AM46 °FClear.3 mph87%30.18 "Hg10 mi
5:00 AM46 °FPartly cloudy.7 mph93%30.18 "HgN/A
4:30 AM48 °FOvercast.9 mph94%30.18 "HgN/A
4:00 AM48 °FPassing clouds.9 mph94%30.15 "HgN/A
3:30 AM48 °FCool.12 mph94%30.15 "HgN/A
3:00 AM48 °FDrizzle. Overcast.9 mph94%30.15 "Hg4 mi
2:30 AM48 °FDrizzle. Fog.9 mph100%30.12 "Hg2 mi
2:00 AM50 °FCool.7 mph94%30.12 "HgN/A
1:30 AM50 °FLight rain. Overcast.6 mph94%30.12 "HgN/A
12:30 AM50 °FLow clouds.7 mph94%30.09 "HgN/A
12:00 AM50 °FLow clouds.9 mph94%30.09 "Hg5 mi
11:30 PM
Nov 23
50 °FDrizzle. Low clouds.9 mph94%30.07 "Hg3 mi
11:00 PM50 °FDrizzle. Low clouds.12 mph94%30.07 "Hg3 mi
10:30 PM50 °FDrizzle. Low clouds.13 mph94%30.07 "Hg3 mi
10:00 PM50 °FDrizzle. Fog.14 mph100%30.04 "Hg2 mi
9:30 PM52 °FDrizzle. Fog.10 mph94%30.01 "Hg2 mi
9:00 PM52 °FPassing clouds.13 mph94%30.01 "Hg2 mi
8:30 PM52 °FPassing clouds.14 mph100%29.98 "Hg2 mi
8:00 PM54 °FPassing clouds.10 mph94%29.98 "Hg2 mi
7:30 PM54 °FPassing clouds.8 mph94%29.98 "HgN/A
7:00 PM54 °FPassing clouds.6 mph94%29.95 "HgN/A
6:30 PM54 °FPassing clouds.3 mph94%29.95 "HgN/A
6:00 PM55 °FPassing clouds.3 mph88%29.95 "HgN/A
5:30 PM55 °FPartly cloudy.5 mph88%29.95 "HgN/A
5:00 PM55 °FClear.6 mph88%29.95 "Hg10 mi
4:30 PM55 °FSunny.8 mph88%29.95 "Hg10 mi
4:00 PM55 °FSunny.5 mph88%29.92 "Hg10 mi
Weather by CustomWeather, © 2014

See weather overviewHow to use our weather pages